Location: Demmingen
(48.6757°N, 10.4375°E)
Time: 09:56:33
(UTC+00:00)

Sich 1 Rocket - Pass Details

Date: 23 May 2024
Orbit: 613 x 650 km, 82.5° (Epoch: 15 June)

Event Time Altitude Azimuth Distance (km) Brightness Sun altitude
Rises 02:31:41 0° 347° (NNW) 2,960 7.5 -8.0°
Reaches altitude 10° 02:33:58 10° 344° (NNW) 2,040 6.6 -7.7°
Maximum altitude 02:38:25 61° 265° (W) 724 3.7 -7.2°
Drops below altitude 10° 02:42:47 10° 185° (S) 2,001 5.7 -6.7°
Sets 02:45:01 0° 182° (S) 2,897 6.6 -6.4°
